Location: Melbourne
(37.8170°S, 144.9670°E)
Time: 21:46:01
(UTC+11:00)

CZ-3 R/B - Visible Passes

Search period start: 30 March 2017 00:00
Search period end: 08 April 2017 23:00
Orbit: 242 x 10581 km, 28.4° (Epoch: 28 March)

Date Brightness Start Highest point End Pass type
(mag) Time Alt. Az. Time Alt. Az. Time Alt. Az.
30 Mar 5.1 00:12:03 10° WNW 01:53:35 54° ENE 02:06:49 10° ENE visible
30 Mar 4.3 04:59:03 10° W 05:37:59 40° NW 05:48:21 10° NNE visible
30 Mar 6.0 20:58:47 10° NW 22:10:30 60° NNE 22:41:54 45° ENE visible
31 Mar 4.9 01:10:10 10° W 02:40:20 64° NNE 02:55:38 10° ENE visible
31 Mar 4.5 06:12:48 18° W 06:25:51 26° NW 06:34:43 10° N visible
31 Mar 6.6 18:04:55 10° N 18:48:19 29° ENE 19:48:18 10° E visible
31 Mar 5.8 21:49:13 10° NW 23:08:19 67° NNE 23:56:57 10° E visible
01 Apr 4.8 02:10:48 10° W 03:26:59 64° NNW 03:43:50 10° NE visible
01 Apr 4.5 07:03:11 10° W 07:12:52 14° WNW 07:18:38 10° NW visible
01 Apr 6.4 18:50:02 10° N 19:40:06 40° NE 20:40:48 15° E visible
01 Apr 5.6 22:41:05 10° WNW 00:06:20 72° N 00:46:52 10° E visible
02 Apr 4.6 02:13:18 10° W 03:16:48 55° NNW 03:31:27 10° NE visible
02 Apr 6.3 18:36:56 10° NNW 19:33:32 50° NE 20:26:02 26° E visible
02 Apr 5.3 22:34:42 10° WNW 00:27:31 36° ENE 00:36:01 10° ENE visible
03 Apr 4.6 03:16:30 10° W 04:05:43 43° NW 04:18:21 10° NNE visible
03 Apr 6.1 19:25:03 10° NW 20:28:55 60° NE 21:11:04 38° E visible
03 Apr 5.0 23:30:22 10° W 01:13:46 47° NE 01:24:31 10° ENE visible
04 Apr 4.7 04:46:09 27° WNW 04:53:19 29° NW 05:04:17 10° N visible
04 Apr 6.0 20:14:14 10° NW 21:26:11 67° NNE 21:55:54 52° ENE visible
05 Apr 4.8 00:28:19 10° W 01:59:53 55° NNE 02:12:22 10° NE visible
05 Apr 4.6 05:32:15 15° W 05:39:57 17° WNW 05:48:20 10° NNW visible
05 Apr 6.6 17:16:39 10° N 17:59:08 38° NE 19:08:28 10° ESE visible
05 Apr 5.9 21:04:37 10° WNW 22:24:26 72° NNE 23:13:40 10° E visible
06 Apr 4.7 01:28:28 10° W 02:45:51 55° N 02:59:35 10° NE visible
06 Apr 6.4 18:02:42 10° NNW 18:50:50 49° NE 19:52:56 21° E visible
06 Apr 5.6 21:56:22 10° WNW 23:22:13 74° N 00:02:42 10° ENE visible
07 Apr 4.8 02:30:21 10° W 03:31:37 45° NW 03:46:04 10° NNE visible
07 Apr 6.2 18:49:50 10° NW 19:44:38 59° NE 20:37:15 32° E visible
07 Apr 5.4 22:49:46 10° WNW 00:44:59 29° ENE 00:50:58 10° ENE visible
08 Apr 4.9 03:33:20 10° WSW 04:18:02 33° NW 04:31:38 10° N visible
08 Apr 6.1 19:37:53 10° NW 20:40:39 67° NNE 21:21:22 45° E visible
